When you browse on this site, cookies collect data to enhance your experience and personalize the content and advertising you see.
Visit our Privacy Policy to learn more. By continuing to use the site, you agree to this use of cookies and data.
  • în România
  • Lista ţărilor
  • Pe 7 zile
  • Temperatura apei
  • Hartă satelitară
  • Meteo pe hartă
  • Widget-uri
  • user-avatar
    Intrare

    Meteo pe oră la Liverpool

    Astăzi, 21 Aprilie, Duminică

    Timp Temperatura Precipitaţii Vânt Presiune Umiditate
    00:00 +14°C° 0 mm 3 m/s 769 mmHg 71%
    01:00 +14°C° 0 mm 3 m/s 768 mmHg 74%
    02:00 +13°C° 0 mm 3 m/s 767 mmHg 76%
    03:00 +12°C° 0 mm 3 m/s 767 mmHg 79%
    04:00 +13°C° 0 mm 2 m/s 767 mmHg 80%
    05:00 +13°C° 0 mm 2 m/s 766 mmHg 80%
    06:00 +13°C° 0 mm 2 m/s 766 mmHg 81%
    07:00 +14°C° 0 mm 2 m/s 765 mmHg 77%
    08:00 +16°C° 0 mm 2 m/s 765 mmHg 72%
    09:00 +18°C° 0 mm 2 m/s 764 mmHg 68%
    10:00 +19°C° 0 mm 2 m/s 764 mmHg 63%
    11:00 +20°C° 0 mm 2 m/s 763 mmHg 57%
    12:00 +23°C° 0 mm 2 m/s 763 mmHg 52%
    13:00 +23°C° 0 mm 2 m/s 762 mmHg 51%
    14:00 +23°C° 0 mm 2 m/s 762 mmHg 50%
    15:00 +24°C° 0 mm 2 m/s 761 mmHg 50%
    16:00 +23°C° 0 mm 2 m/s 761 mmHg 54%
    17:00 +21°C° 0 mm 2 m/s 760 mmHg 58%
    18:00 +20°C° 0 mm 2 m/s 760 mmHg 63%
    19:00 +19°C° 0 mm 2 m/s 759 mmHg 66%
    20:00 +18°C° 0 mm 1 m/s 759 mmHg 70%
    21:00 +16°C° 0 mm 1 m/s 759 mmHg 73%
    22:00 +15°C° 0 mm 2 m/s 759 mmHg 74%
    23:00 +15°C° 0 mm 2 m/s 758 mmHg 75%

    Mâine, 22 Aprilie, Luni

    Timp Temperatura Precipitaţii Vânt Presiune Umiditate
    00:00 +13°C° 0 mm 3 m/s 758 mmHg 76%
    01:00 +12°C° 0 mm 3 m/s 757 mmHg 77%
    02:00 +12°C° 0 mm 3 m/s 757 mmHg 78%
    03:00 +11°C° 0 mm 3 m/s 756 mmHg 78%
    04:00 +11°C° 0 mm 3 m/s 756 mmHg 78%
    05:00 +11°C° 0 mm 4 m/s 756 mmHg 78%
    06:00 +11°C° 0 mm 4 m/s 755 mmHg 78%
    07:00 +12°C° 0 mm 4 m/s 755 mmHg 71%
    08:00 +14°C° 0 mm 4 m/s 754 mmHg 64%
    09:00 +16°C° 0 mm 5 m/s 754 mmHg 57%
    10:00 +17°C° 0 mm 5 m/s 753 mmHg 54%
    11:00 +20°C° 0 mm 5 m/s 753 mmHg 52%
    12:00 +21°C° 0 mm 5 m/s 752 mmHg 50%
    13:00 +21°C° 0.1 mm 5 m/s 752 mmHg 51%
    14:00 +21°C° 0.1 mm 5 m/s 751 mmHg 53%
    15:00 +21°C° 0.1 mm 5 m/s 750 mmHg 55%
    16:00 +21°C° 0.1 mm 5 m/s 750 mmHg 57%
    17:00 +20°C° 0.1 mm 5 m/s 750 mmHg 58%
    18:00 +20°C° 0.1 mm 5 m/s 750 mmHg 60%
    19:00 +19°C° 0 mm 5 m/s 750 mmHg 63%
    20:00 +17°C° 0 mm 5 m/s 750 mmHg 66%
    21:00 +16°C° 0 mm 5 m/s 750 mmHg 69%
    22:00 +15°C° 0 mm 5 m/s 750 mmHg 73%
    23:00 +14°C° 0 mm 5 m/s 750 mmHg 77%

    Poimâine, 23 Aprilie, Marţi

    Timp Temperatura Precipitaţii Vânt Presiune Umiditate
    00:00 +14°C° 0 mm 4 m/s 750 mmHg 82%
    01:00 +13°C° 0 mm 4 m/s 749 mmHg 83%
    02:00 +13°C° 0 mm 3 m/s 749 mmHg 83%
    03:00 +12°C° 0 mm 3 m/s 749 mmHg 84%
    04:00 +12°C° 0 mm 3 m/s 749 mmHg 82%
    05:00 +12°C° 0 mm 3 m/s 749 mmHg 79%
    06:00 +12°C° 0 mm 3 m/s 748 mmHg 77%
    07:00 +14°C° 0 mm 3 m/s 748 mmHg 73%
    08:00 +15°C° 0 mm 4 m/s 748 mmHg 69%
    09:00 +16°C° 0 mm 5 m/s 748 mmHg 65%
    10:00 +19°C° 0 mm 5 m/s 748 mmHg 61%
    11:00 +20°C° 0 mm 6 m/s 748 mmHg 58%
    12:00 +21°C° 0 mm 6 m/s 747 mmHg 54%
    13:00 +21°C° 0 mm 6 m/s 747 mmHg 54%
    14:00 +21°C° 0 mm 6 m/s 747 mmHg 55%
    15:00 +21°C° 0 mm 6 m/s 747 mmHg 55%
    16:00 +20°C° 0 mm 6 m/s 746 mmHg 58%
    17:00 +20°C° 0 mm 6 m/s 746 mmHg 61%
    18:00 +19°C° 0 mm 6 m/s 746 mmHg 65%
    19:00 +16°C° 0 mm 6 m/s 746 mmHg 65%
    20:00 +15°C° 0 mm 6 m/s 747 mmHg 66%
    21:00 +13°C° 0 mm 6 m/s 747 mmHg 66%
    22:00 +13°C° 0 mm 5 m/s 747 mmHg 69%
    23:00 +12°C° 0 mm 5 m/s 746 mmHg 72%

    24 Aprilie, Miercuri

    Timp Temperatura Precipitaţii Vânt Presiune Umiditate
    00:00 +12°C° 0 mm 5 m/s 746 mmHg 74%
    01:00 +10°C° 0 mm 5 m/s 745 mmHg 78%
    02:00 +10°C° 0 mm 5 m/s 745 mmHg 81%
    03:00 +11°C° 0 mm 4 m/s 744 mmHg 84%
    04:00 +11°C° 0 mm 4 m/s 744 mmHg 84%
    05:00 +11°C° 0 mm 4 m/s 744 mmHg 85%
    06:00 +11°C° 0 mm 4 m/s 744 mmHg 85%
    07:00 +11°C° 0.9 mm 4 m/s 744 mmHg 86%
    08:00 +11°C° 0.9 mm 4 m/s 744 mmHg 87%
    09:00 +11°C° 0.9 mm 4 m/s 744 mmHg 88%
    10:00 +12°C° 0.9 mm 3 m/s 744 mmHg 85%
    11:00 +12°C° 0.9 mm 3 m/s 744 mmHg 81%
    12:00 +14°C° 0.9 mm 2 m/s 745 mmHg 78%
    13:00 +15°C° 0.1 mm 2 m/s 744 mmHg 72%
    14:00 +15°C° 0.1 mm 2 m/s 744 mmHg 66%
    15:00 +16°C° 0.1 mm 3 m/s 744 mmHg 61%
    16:00 +16°C° 0 mm 3 m/s 745 mmHg 61%
    17:00 +14°C° 0 mm 4 m/s 745 mmHg 61%
    18:00 +14°C° 0 mm 5 m/s 745 mmHg 61%
    19:00 +13°C° 0 mm 5 m/s 745 mmHg 64%
    20:00 +11°C° 0 mm 6 m/s 745 mmHg 67%
    21:00 +10°C° 0 mm 6 m/s 745 mmHg 71%
    22:00 +10°C° 0 mm 6 m/s 744 mmHg 71%
    23:00 +10°C° 0 mm 7 m/s 744 mmHg 70%

    25 Aprilie, Joi

    Timp Temperatura Precipitaţii Vânt Presiune Umiditate
    00:00 +10°C° 0 mm 7 m/s 744 mmHg 70%
    01:00 +9°C° 0.1 mm 7 m/s 743 mmHg 74%
    02:00 +9°C° 0.1 mm 7 m/s 743 mmHg 77%
    03:00 +9°C° 0.1 mm 7 m/s 743 mmHg 80%
    04:00 +9°C° 0 mm 7 m/s 743 mmHg 82%
    05:00 +9°C° 0 mm 6 m/s 743 mmHg 84%
    06:00 +9°C° 0 mm 5 m/s 743 mmHg 85%
    07:00 +9°C° 0.1 mm 5 m/s 743 mmHg 82%
    08:00 +9°C° 0.1 mm 5 m/s 743 mmHg 79%
    09:00 +9°C° 0.1 mm 5 m/s 743 mmHg 75%
    10:00 +10°C° 0.2 mm 6 m/s 744 mmHg 70%
    11:00 +11°C° 0.2 mm 6 m/s 744 mmHg 64%
    12:00 +12°C° 0.2 mm 7 m/s 745 mmHg 59%
    13:00 +12°C° 0.6 mm 7 m/s 745 mmHg 60%
    14:00 +13°C° 0.6 mm 6 m/s 745 mmHg 61%
    15:00 +13°C° 0.6 mm 6 m/s 745 mmHg 62%
    16:00 +13°C° 0.4 mm 6 m/s 745 mmHg 65%
    17:00 +11°C° 0.4 mm 6 m/s 746 mmHg 68%
    18:00 +10°C° 0.4 mm 6 m/s 746 mmHg 71%
    19:00 +10°C° 0.6 mm 6 m/s 747 mmHg 74%
    20:00 +9°C° 0.6 mm 5 m/s 747 mmHg 77%
    21:00 +8°C° 0.6 mm 5 m/s 748 mmHg 81%
    22:00 +8°C° 0.1 mm 5 m/s 748 mmHg 83%
    23:00 +7°C° 0.1 mm 5 m/s 748 mmHg 85%

    26 Aprilie, Vineri

    Timp Temperatura Precipitaţii Vânt Presiune Umiditate
    00:00 +7°C° 0.1 mm 5 m/s 748 mmHg 87%
    01:00 +6°C° 0 mm 4 m/s 748 mmHg 87%
    02:00 +6°C° 0 mm 4 m/s 748 mmHg 88%
    03:00 +7°C° 0 mm 3 m/s 748 mmHg 89%
    04:00 +7°C° 1 mm 3 m/s 749 mmHg 89%
    05:00 +7°C° 1 mm 3 m/s 749 mmHg 90%
    06:00 +7°C° 1 mm 2 m/s 750 mmHg 91%
    07:00 +8°C° 0.1 mm 2 m/s 750 mmHg 87%
    08:00 +9°C° 0.1 mm 2 m/s 751 mmHg 84%
    09:00 +10°C° 0.1 mm 2 m/s 751 mmHg 81%
    10:00 +12°C° 0 mm 2 m/s 752 mmHg 73%
    11:00 +13°C° 0 mm 3 m/s 752 mmHg 66%
    12:00 +14°C° 0 mm 3 m/s 753 mmHg 59%
    13:00 +14°C° 0.1 mm 4 m/s 753 mmHg 60%
    14:00 +14°C° 0.1 mm 5 m/s 754 mmHg 61%
    15:00 +14°C° 0.1 mm 5 m/s 754 mmHg 62%
    16:00 +13°C° 0.1 mm 5 m/s 754 mmHg 64%
    17:00 +11°C° 0.1 mm 6 m/s 754 mmHg 65%
    18:00 +10°C° 0.1 mm 6 m/s 755 mmHg 67%
    19:00 +10°C° 0.4 mm 6 m/s 755 mmHg 72%
    20:00 +9°C° 0.4 mm 7 m/s 754 mmHg 77%
    21:00 +9°C° 0.4 mm 7 m/s 754 mmHg 82%
    22:00 +8°C° 0.1 mm 7 m/s 755 mmHg 77%
    23:00 +7°C° 0.1 mm 8 m/s 755 mmHg 72%
    Arată mai mult